• In Germany
  • List of Countries
  • For 7 days
  • Water Temperature
  • Satellite Maps
  • Weather Map
  • Weather Widgets
  • user-avatar
    Login

    Hourly Weather Kętrzyn

    Today, 12 December, Tuesday

    Time Temperature Precipitation Wind Pressure Humidity
    00:00 +1°C° 0 mm 6 mps 737 mmHg 90%
    01:00 +2°C° 0 mm 6 mps 736 mmHg 92%
    02:00 +2°C° 0 mm 6 mps 736 mmHg 91%
    03:00 +2°C° 0 mm 6 mps 736 mmHg 91%
    04:00 +2°C° 0 mm 6 mps 736 mmHg 91%
    05:00 +3°C° 0 mm 6 mps 736 mmHg 91%
    06:00 +3°C° 0 mm 6 mps 736 mmHg 90%
    07:00 +4°C° 0 mm 4 mps 736 mmHg 92%
    08:00 +5°C° 0.1 mm 5 mps 736 mmHg 92%
    09:00 +4°C° 0.1 mm 6 mps 737 mmHg 92%
    10:00 +5°C° 0.1 mm 6 mps 737 mmHg 92%
    11:00 +5°C° 0 mm 6 mps 738 mmHg 89%
    12:00 +5°C° 0 mm 6 mps 738 mmHg 86%
    13:00 +6°C° 0 mm 4 mps 738 mmHg 85%
    14:00 +6°C° 0.1 mm 5 mps 739 mmHg 83%
    15:00 +5°C° 0.1 mm 6 mps 740 mmHg 80%
    16:00 +5°C° 0.1 mm 7 mps 740 mmHg 78%
    17:00 +4°C° 0 mm 7 mps 741 mmHg 76%
    18:00 +2°C° 0 mm 8 mps 742 mmHg 73%
    19:00 +1°C° 0 mm 8 mps 742 mmHg 71%
    20:00 +1°C° 0 mm 8 mps 743 mmHg 71%
    21:00 0°C° 0 mm 8 mps 743 mmHg 71%
    22:00 0°C° 0 mm 8 mps 744 mmHg 71%
    23:00 0°C° 0 mm 8 mps 745 mmHg 72%

    Tomorrow, 13 December, Wednesday

    Time Temperature Precipitation Wind Pressure Humidity
    00:00 0°C° 0 mm 7 mps 745 mmHg 74%
    01:00 0°C° 0 mm 7 mps 746 mmHg 75%
    02:00 -1°C° 0 mm 6 mps 747 mmHg 76%
    03:00 -1°C° 0 mm 6 mps 747 mmHg 77%
    04:00 -1°C° 0 mm 5 mps 748 mmHg 78%
    05:00 -1°C° 0 mm 5 mps 749 mmHg 80%
    06:00 -1°C° 0 mm 5 mps 749 mmHg 83%
    07:00 -2°C° 0 mm 5 mps 750 mmHg 85%
    08:00 -1°C° 0 mm 5 mps 751 mmHg 84%
    09:00 -1°C° 0 mm 5 mps 751 mmHg 84%
    10:00 -1°C° 0 mm 5 mps 752 mmHg 83%
    11:00 -1°C° 0 mm 4 mps 752 mmHg 82%
    12:00 0°C° 0 mm 4 mps 751 mmHg 81%
    13:00 0°C° 0 mm 4 mps 751 mmHg 80%
    14:00 -1°C° 0 mm 4 mps 751 mmHg 83%
    15:00 -1°C° 0 mm 4 mps 751 mmHg 86%
    16:00 -2°C° 0 mm 4 mps 751 mmHg 89%
    17:00 -2°C° 0 mm 4 mps 750 mmHg 89%
    18:00 -2°C° 0 mm 4 mps 750 mmHg 89%
    19:00 -2°C° 0 mm 5 mps 749 mmHg 89%
    20:00 -2°C° 0 mm 5 mps 749 mmHg 88%
    21:00 -2°C° 0 mm 5 mps 748 mmHg 86%
    22:00 -3°C° 0 mm 6 mps 747 mmHg 85%
    23:00 -3°C° 0 mm 6 mps 746 mmHg 83%

    Day after tomorrow, 14 December, Thursday

    Time Temperature Precipitation Wind Pressure Humidity
    00:00 -3°C° 0 mm 6 mps 745 mmHg 82%
    01:00 -3°C° 0 mm 6 mps 745 mmHg 80%
    02:00 -3°C° 0 mm 7 mps 744 mmHg 78%
    03:00 -3°C° 0 mm 7 mps 742 mmHg 76%
    04:00 -4°C° 0 mm 8 mps 741 mmHg 75%
    05:00 -4°C° 0 mm 8 mps 740 mmHg 73%
    06:00 -2°C° 0 mm 8 mps 740 mmHg 71%
    07:00 -2°C° 0 mm 8 mps 739 mmHg 69%
    08:00 -2°C° 0.3 mm 8 mps 738 mmHg 72%
    09:00 -3°C° 0.3 mm 9 mps 737 mmHg 75%
    10:00 -3°C° 0.3 mm 9 mps 736 mmHg 78%
    11:00 -1°C° 0.4 mm 8 mps 736 mmHg 79%
    12:00 -1°C° 0.4 mm 8 mps 735 mmHg 80%
    13:00 0°C° 0.4 mm 7 mps 735 mmHg 82%
    14:00 +1°C° 0 mm 6 mps 735 mmHg 84%
    15:00 0°C° 0 mm 5 mps 735 mmHg 85%
    16:00 0°C° 0 mm 4 mps 736 mmHg 87%
    17:00 0°C° 0 mm 4 mps 736 mmHg 87%
    18:00 0°C° 0 mm 5 mps 736 mmHg 86%
    19:00 0°C° 0 mm 5 mps 736 mmHg 86%
    20:00 -1°C° 0 mm 5 mps 737 mmHg 84%
    21:00 -1°C° 0 mm 5 mps 737 mmHg 83%
    22:00 -2°C° 0 mm 6 mps 738 mmHg 82%
    23:00 -2°C° 0 mm 6 mps 738 mmHg 82%

    15 December, Friday

    Time Temperature Precipitation Wind Pressure Humidity
    00:00 -3°C° 0 mm 6 mps 738 mmHg 82%
    01:00 -3°C° 0 mm 6 mps 738 mmHg 81%
    02:00 -3°C° 0 mm 6 mps 738 mmHg 80%
    03:00 -2°C° 0 mm 5 mps 738 mmHg 79%
    04:00 -2°C° 0 mm 5 mps 737 mmHg 78%
    05:00 -2°C° 0 mm 5 mps 737 mmHg 77%
    06:00 -2°C° 0 mm 5 mps 737 mmHg 75%
    07:00 -2°C° 0 mm 5 mps 736 mmHg 74%
    08:00 -2°C° 0.3 mm 6 mps 736 mmHg 78%
    09:00 -2°C° 0.3 mm 6 mps 735 mmHg 81%
    10:00 -2°C° 0.3 mm 6 mps 735 mmHg 85%
    11:00 -1°C° 0.8 mm 6 mps 734 mmHg 86%
    12:00 0°C° 0.8 mm 5 mps 733 mmHg 87%
    13:00 +1°C° 0.8 mm 5 mps 733 mmHg 88%
    14:00 0°C° 0.5 mm 5 mps 733 mmHg 88%
    15:00 0°C° 0.5 mm 5 mps 733 mmHg 88%
    16:00 0°C° 0.5 mm 5 mps 733 mmHg 88%
    17:00 0°C° 0.1 mm 5 mps 734 mmHg 89%
    18:00 -1°C° 0.1 mm 5 mps 734 mmHg 89%
    19:00 -1°C° 0.1 mm 5 mps 735 mmHg 90%
    20:00 -1°C° 0 mm 5 mps 736 mmHg 90%
    21:00 -2°C° 0 mm 6 mps 737 mmHg 89%
    22:00 -2°C° 0 mm 6 mps 737 mmHg 89%
    23:00 -1°C° 0 mm 5 mps 738 mmHg 89%

    16 December, Saturday

    Time Temperature Precipitation Wind Pressure Humidity
    00:00 -1°C° 0 mm 5 mps 738 mmHg 90%
    01:00 -1°C° 0 mm 5 mps 738 mmHg 90%
    02:00 -1°C° 0 mm 4 mps 738 mmHg 90%
    03:00 -2°C° 0 mm 4 mps 739 mmHg 91%
    04:00 -2°C° 0 mm 4 mps 739 mmHg 92%
    05:00 -2°C° 0 mm 4 mps 739 mmHg 92%
    06:00 -2°C° 0 mm 4 mps 739 mmHg 92%
    07:00 -2°C° 0 mm 4 mps 740 mmHg 92%
    08:00 -2°C° 0 mm 4 mps 740 mmHg 91%
    09:00 -2°C° 0 mm 4 mps 740 mmHg 90%
    10:00 -1°C° 0 mm 4 mps 741 mmHg 89%
    11:00 -1°C° 0 mm 4 mps 741 mmHg 89%
    12:00 -1°C° 0 mm 5 mps 741 mmHg 88%
    13:00 -1°C° 0 mm 5 mps 741 mmHg 88%
    14:00 -1°C° 0 mm 4 mps 742 mmHg 88%
    15:00 -1°C° 0 mm 4 mps 742 mmHg 88%
    16:00 -1°C° 0 mm 4 mps 742 mmHg 88%
    17:00 -1°C° 0.1 mm 4 mps 742 mmHg 88%
    18:00 -1°C° 0.1 mm 4 mps 743 mmHg 88%
    19:00 -1°C° 0.1 mm 4 mps 743 mmHg 89%
    20:00 -1°C° 0 mm 5 mps 743 mmHg 89%
    21:00 -1°C° 0 mm 5 mps 744 mmHg 88%
    22:00 -1°C° 0 mm 5 mps 744 mmHg 88%
    23:00 -1°C° 0 mm 5 mps 744 mmHg 88%

    17 December, Sunday

    Time Temperature Precipitation Wind Pressure Humidity
    00:00 -2°C° 0 mm 5 mps 745 mmHg 88%
    01:00 -2°C° 0 mm 5 mps 745 mmHg 87%
    02:00 -2°C° 0 mm 5 mps 746 mmHg 88%
    03:00 -2°C° 0 mm 5 mps 746 mmHg 89%
    04:00 -4°C° 0 mm 5 mps 747 mmHg 89%
    05:00 -2°C° 0.1 mm 5 mps 747 mmHg 90%
    06:00 -2°C° 0.1 mm 5 mps 748 mmHg 90%
    07:00 -2°C° 0.1 mm 5 mps 749 mmHg 90%
    08:00 -2°C° 0.1 mm 5 mps 749 mmHg 90%
    09:00 -2°C° 0.1 mm 5 mps 750 mmHg 90%
    10:00 -1°C° 0.1 mm 5 mps 750 mmHg 89%
    11:00 -1°C° 0 mm 4 mps 751 mmHg 89%
    12:00 -1°C° 0 mm 4 mps 751 mmHg 89%
    13:00 -1°C° 0 mm 4 mps 752 mmHg 88%
    14:00 -1°C° 0.1 mm 4 mps 752 mmHg 89%
    15:00 0°C° 0.1 mm 3 mps 753 mmHg 89%
    16:00 -1°C° 0.1 mm 3 mps 753 mmHg 89%
    17:00 -1°C° 0.1 mm 3 mps 754 mmHg 89%
    18:00 -1°C° 0.1 mm 3 mps 754 mmHg 90%
    19:00 -2°C° 0.1 mm 3 mps 755 mmHg 90%
    20:00 -2°C° 0 mm 3 mps 755 mmHg 90%
    21:00 -2°C° 0 mm 3 mps 755 mmHg 90%
    22:00 -2°C° 0 mm 3 mps 756 mmHg 90%
    23:00 -2°C° 0.1 mm 3 mps 756 mmHg 90%
    Show more